Hourly Weather Pontypridd

Today, 7 July, Tuesday

Time Temperature Precipitation Wind Pressure Humidity
00:00 +10°C° 0 mm 3 mps 757 mmHg 93%
01:00 +10°C° 0 mm 3 mps 757 mmHg 94%
02:00 +10°C° 0 mm 3 mps 756 mmHg 94%
03:00 +10°C° 0 mm 3 mps 756 mmHg 94%
04:00 +11°C° 0 mm 3 mps 756 mmHg 93%
05:00 +11°C° 0 mm 3 mps 755 mmHg 92%
06:00 +12°C° 0 mm 4 mps 755 mmHg 93%
07:00 +13°C° 0 mm 4 mps 755 mmHg 92%
08:00 +13°C° 0 mm 5 mps 755 mmHg 90%
09:00 +13°C° 0 mm 5 mps 755 mmHg 88%
10:00 +14°C° 0 mm 6 mps 755 mmHg 84%
11:00 +14°C° 0 mm 6 mps 755 mmHg 81%
12:00 +15°C° 0 mm 7 mps 754 mmHg 77%
13:00 +15°C° 0 mm 7 mps 754 mmHg 78%
14:00 +15°C° 0 mm 7 mps 754 mmHg 80%
15:00 +15°C° 0 mm 8 mps 753 mmHg 81%
16:00 +13°C° 0.4 mm 8 mps 753 mmHg 86%
17:00 +13°C° 0.4 mm 9 mps 752 mmHg 91%
18:00 +12°C° 0.4 mm 9 mps 751 mmHg 95%
19:00 +13°C° 0.4 mm 9 mps 751 mmHg 96%
20:00 +13°C° 0.4 mm 8 mps 751 mmHg 96%
21:00 +13°C° 0.4 mm 8 mps 751 mmHg 97%
22:00 +13°C° 0.3 mm 8 mps 751 mmHg 97%
23:00 +15°C° 0.3 mm 8 mps 751 mmHg 97%

Tomorrow, 8 July, Wednesday

Time Temperature Precipitation Wind Pressure Humidity
00:00 +15°C° 0.3 mm 8 mps 751 mmHg 97%
01:00 +15°C° 0.5 mm 7 mps 750 mmHg 97%
02:00 +15°C° 0.5 mm 7 mps 750 mmHg 97%
03:00 +15°C° 0.5 mm 7 mps 750 mmHg 97%
04:00 +14°C° 0.6 mm 6 mps 750 mmHg 97%
05:00 +14°C° 0.6 mm 5 mps 750 mmHg 98%
06:00 +14°C° 0.6 mm 3 mps 750 mmHg 98%
07:00 +14°C° 0.5 mm 3 mps 750 mmHg 97%
08:00 +15°C° 0.5 mm 2 mps 751 mmHg 97%
09:00 +15°C° 0.5 mm 2 mps 751 mmHg 97%
10:00 +16°C° 0.1 mm 2 mps 751 mmHg 93%
11:00 +17°C° 0.1 mm 2 mps 751 mmHg 90%
12:00 +18°C° 0.1 mm 3 mps 751 mmHg 86%
13:00 +18°C° 0 mm 3 mps 751 mmHg 89%
14:00 +17°C° 0 mm 3 mps 751 mmHg 91%
15:00 +17°C° 0 mm 4 mps 751 mmHg 94%
16:00 +15°C° 0.1 mm 4 mps 751 mmHg 95%
17:00 +15°C° 0.1 mm 5 mps 751 mmHg 96%
18:00 +15°C° 0.1 mm 5 mps 750 mmHg 96%
19:00 +15°C° 0.5 mm 5 mps 751 mmHg 97%
20:00 +15°C° 0.5 mm 6 mps 751 mmHg 97%
21:00 +15°C° 0.5 mm 6 mps 751 mmHg 98%
22:00 +15°C° 0.2 mm 6 mps 750 mmHg 97%
23:00 +15°C° 0.2 mm 6 mps 750 mmHg 97%

Day after tomorrow, 9 July, Thursday

Time Temperature Precipitation Wind Pressure Humidity
00:00 +15°C° 0.2 mm 6 mps 750 mmHg 97%
01:00 +15°C° 0.6 mm 6 mps 750 mmHg 97%
02:00 +15°C° 0.6 mm 6 mps 749 mmHg 98%
03:00 +15°C° 0.6 mm 6 mps 749 mmHg 98%
04:00 +15°C° 0.6 mm 6 mps 749 mmHg 98%
05:00 +15°C° 0.6 mm 5 mps 748 mmHg 98%
06:00 +15°C° 0.6 mm 5 mps 748 mmHg 98%
07:00 +15°C° 0.2 mm 5 mps 748 mmHg 97%
08:00 +16°C° 0.2 mm 5 mps 748 mmHg 97%
09:00 +16°C° 0.2 mm 6 mps 748 mmHg 96%
10:00 +16°C° 0.1 mm 6 mps 748 mmHg 96%
11:00 +16°C° 0.1 mm 6 mps 748 mmHg 96%
12:00 +16°C° 0.1 mm 6 mps 748 mmHg 96%
13:00 +16°C° 0.1 mm 6 mps 748 mmHg 96%
14:00 +16°C° 0.1 mm 6 mps 748 mmHg 96%
15:00 +16°C° 0.1 mm 6 mps 748 mmHg 96%
16:00 +16°C° 0.1 mm 6 mps 748 mmHg 96%
17:00 +16°C° 0.1 mm 5 mps 748 mmHg 95%
18:00 +16°C° 0.1 mm 5 mps 748 mmHg 95%
19:00 +15°C° 0 mm 5 mps 748 mmHg 95%
20:00 +14°C° 0 mm 4 mps 749 mmHg 94%
21:00 +14°C° 0 mm 4 mps 749 mmHg 93%
22:00 +13°C° 0 mm 4 mps 749 mmHg 94%
23:00 +12°C° 0 mm 4 mps 750 mmHg 94%

10 July, Friday

Time Temperature Precipitation Wind Pressure Humidity
00:00 +11°C° 0 mm 4 mps 750 mmHg 95%
01:00 +11°C° 0 mm 4 mps 750 mmHg 93%
02:00 +9°C° 0 mm 5 mps 751 mmHg 91%
03:00 +8°C° 0 mm 5 mps 751 mmHg 90%
04:00 +8°C° 0 mm 5 mps 751 mmHg 90%
05:00 +8°C° 0 mm 5 mps 752 mmHg 89%
06:00 +8°C° 0 mm 6 mps 752 mmHg 89%
07:00 +10°C° 0 mm 6 mps 753 mmHg 83%
08:00 +11°C° 0 mm 7 mps 753 mmHg 77%
09:00 +12°C° 0 mm 7 mps 754 mmHg 71%
10:00 +14°C° 0 mm 7 mps 754 mmHg 70%
11:00 +15°C° 0 mm 7 mps 754 mmHg 68%
12:00 +15°C° 0 mm 7 mps 755 mmHg 67%
13:00 +15°C° 0 mm 7 mps 755 mmHg 67%
14:00 +16°C° 0 mm 7 mps 755 mmHg 67%
15:00 +16°C° 0 mm 7 mps 755 mmHg 67%
16:00 +15°C° 0 mm 7 mps 755 mmHg 69%
17:00 +15°C° 0 mm 6 mps 756 mmHg 71%
18:00 +14°C° 0 mm 6 mps 756 mmHg 72%
19:00 +13°C° 0 mm 5 mps 757 mmHg 78%
20:00 +11°C° 0 mm 4 mps 757 mmHg 84%
21:00 +8°C° 0 mm 4 mps 758 mmHg 89%
22:00 +9°C° 0 mm 3 mps 758 mmHg 90%
23:00 +8°C° 0 mm 3 mps 758 mmHg 90%

11 July, Saturday

Time Temperature Precipitation Wind Pressure Humidity
00:00 +8°C° 0 mm 2 mps 758 mmHg 90%
01:00 +8°C° 0 mm 2 mps 758 mmHg 91%
02:00 +8°C° 0 mm 2 mps 758 mmHg 91%
03:00 +8°C° 0 mm 2 mps 758 mmHg 91%
04:00 +9°C° 0 mm 2 mps 759 mmHg 89%
05:00 +11°C° 0 mm 1 mps 759 mmHg 88%
06:00 +12°C° 0 mm 1 mps 759 mmHg 86%
07:00 +13°C° 0 mm 1 mps 759 mmHg 81%
08:00 +15°C° 0 mm 1 mps 760 mmHg 76%
09:00 +16°C° 0 mm 1 mps 760 mmHg 71%
10:00 +17°C° 0 mm 2 mps 760 mmHg 70%
11:00 +17°C° 0 mm 2 mps 760 mmHg 70%
12:00 +18°C° 0 mm 3 mps 760 mmHg 69%
13:00 +18°C° 0 mm 3 mps 760 mmHg 68%
14:00 +18°C° 0 mm 3 mps 760 mmHg 67%
15:00 +18°C° 0 mm 3 mps 760 mmHg 66%
16:00 +18°C° 0 mm 3 mps 760 mmHg 69%
17:00 +18°C° 0 mm 3 mps 760 mmHg 71%
18:00 +17°C° 0 mm 3 mps 760 mmHg 74%
19:00 +14°C° 0 mm 3 mps 760 mmHg 77%
20:00 +13°C° 0 mm 2 mps 760 mmHg 80%
21:00 +10°C° 0 mm 2 mps 760 mmHg 82%
22:00 +10°C° 0 mm 2 mps 760 mmHg 81%
23:00 +9°C° 0 mm 2 mps 760 mmHg 80%

12 July, Sunday

Time Temperature Precipitation Wind Pressure Humidity
00:00 +9°C° 0 mm 2 mps 760 mmHg 78%
01:00 +9°C° 0 mm 2 mps 760 mmHg 80%
02:00 +8°C° 0 mm 2 mps 760 mmHg 82%
03:00 +8°C° 0 mm 2 mps 760 mmHg 84%
04:00 +10°C° 0 mm 1 mps 760 mmHg 82%
05:00 +11°C° 0 mm 1 mps 760 mmHg 81%
06:00 +12°C° 0 mm 1 mps 761 mmHg 80%
07:00 +14°C° 0 mm 1 mps 761 mmHg 76%
08:00 +15°C° 0 mm 1 mps 761 mmHg 73%
09:00 +18°C° 0 mm 1 mps 761 mmHg 70%
10:00 +19°C° 0 mm 1 mps 761 mmHg 67%
11:00 +20°C° 0 mm 1 mps 761 mmHg 64%
12:00 +21°C° 0 mm 1 mps 761 mmHg 61%
13:00 +21°C° 0 mm 1 mps 761 mmHg 61%
14:00 +21°C° 0 mm 1 mps 761 mmHg 61%
15:00 +21°C° 0 mm 1 mps 760 mmHg 60%
16:00 +21°C° 0 mm 1 mps 760 mmHg 64%
17:00 +21°C° 0 mm 1 mps 760 mmHg 67%
18:00 +20°C° 0 mm 1 mps 760 mmHg 71%
19:00 +19°C° 0 mm 1 mps 760 mmHg 75%
20:00 +16°C° 0 mm 1 mps 760 mmHg 79%
21:00 +14°C° 0 mm 1 mps 760 mmHg 84%
22:00 +14°C° 0 mm 1 mps 760 mmHg 85%
23:00 +13°C° 0 mm 1 mps 760 mmHg 86%
Show more